Manteo, NC

7:45 AM EDT on April 30, 2017 (GMT -0400)
Dare County Regional

Weather History for KMQI - May, 2014

Change the Weather History Date:

Friday, May 16, 2014

  Actual Average Record
Temperature  
Mean Temperature 68 °F -  
Max Temperature 75 °F 71 °F 89 °F (2013)
Min Temperature 60 °F 59 °F 43 °F (1973)
Cooling Degree Days 2    
Growing Degree Days 18 (Base 50)    
Moisture  
Dew Point 67 °F    
Average Humidity 91    
Maximum Humidity 99    
Minimum Humidity 80    
Precipitation  
Precipitation 0.85 in - - ()
Sea Level Pressure  
Sea Level Pressure 29.89 in    
Wind  
Wind Speed 17 mph (SSW)    
Max Wind Speed 37 mph    
Max Gust Speed 47 mph    
Visibility 8 miles    
Events Rain    
Averages and records for this station are not official NWS values.
T = Trace of Precipitation, MM = Missing Value Source: NWS Daily Summary

Daily Weather History Graph

Daily Weather History Graph

Search for Another Location

Airport or City:

Trip Planner

Search our weather history database for the weather conditions in past years. The results will help you decide how hot, cold, wet, or windy it might be!

Date:

Astronomy

May. 16, 2014 Rise Set
Actual Time 5:56 AM EDT 8:02 PM EDT
Civil Twilight 5:27 AM EDT 8:30 PM EDT
Nautical Twilight 4:53 AM EDT 9:05 PM EDT
Astronomical Twilight 4:15 AM EDT 9:43 PM EDT
Moon 10:07 PM EDT (5/16) 7:35 AM EDT (5/16)
Length of Visible Light 15h 03m
Length of Day
14h 05m
Waning Gibbous, 95% of the Moon is Illuminated
May 16
Waning Gibbous
May 21
Last Quarter
May 28
New
Jun 5
First Quarter
Jun 13
Full

Hourly Weather History & Observations

Time (EDT) Temp. Dew Point Humidity Pressure Visibility Wind Dir Wind Speed Gust Speed Precip Events Conditions
12:15 AM 73.4 °F 70.5 °F 91% 29.99 in 10.0 mi South 16.1 mph 20.7 mph N/A   Overcast
12:35 AM 73.2 °F 70.2 °F 90% 29.98 in 10.0 mi South 12.7 mph 21.9 mph N/A   Overcast
12:55 AM 73.0 °F 70.2 °F 91% 29.97 in 10.0 mi South 15.0 mph 26.5 mph N/A   Overcast
1:15 AM 73.0 °F 68.9 °F 87% 29.96 in 10.0 mi South 17.3 mph 26.5 mph N/A   Mostly Cloudy
1:35 AM 74.5 °F 70.3 °F 87% 29.96 in 10.0 mi South 16.1 mph 23.0 mph N/A   Scattered Clouds
2:15 AM 75.2 °F 70.7 °F 86% 29.94 in 10.0 mi South 19.6 mph 26.5 mph N/A   Mostly Cloudy
2:35 AM 75.4 °F 70.7 °F 85% 29.93 in 10.0 mi South 20.7 mph 26.5 mph N/A   Mostly Cloudy
2:55 AM 75.4 °F 70.0 °F 83% 29.92 in 10.0 mi South 17.3 mph 27.6 mph N/A   Overcast
3:15 AM 73.6 °F 71.1 °F 92% 29.92 in 4.0 mi South 20.7 mph 32.2 mph 0.07 in Rain Heavy Rain
3:35 AM 74.7 °F 71.6 °F 90% 29.91 in 10.0 mi SSW 17.3 mph 26.5 mph 0.07 in   Overcast
3:55 AM 75.2 °F 70.9 °F 86% 29.91 in 10.0 mi South 21.9 mph 28.8 mph 0.07 in   Overcast
4:15 AM 75.2 °F 70.9 °F 86% 29.90 in 10.0 mi South 18.4 mph 27.6 mph N/A   Mostly Cloudy
4:35 AM 75.2 °F 70.9 °F 86% 29.90 in 10.0 mi South 17.3 mph 26.5 mph N/A   Mostly Cloudy
4:55 AM 75.2 °F 70.9 °F 86% 29.88 in 10.0 mi South 18.4 mph 26.5 mph N/A   Scattered Clouds
5:15 AM 75.2 °F 70.2 °F 84% 29.88 in 10.0 mi South 18.4 mph 26.5 mph N/A   Clear
5:35 AM 75.0 °F 70.0 °F 84% 29.87 in 10.0 mi South 17.3 mph 26.5 mph N/A   Drizzle
5:55 AM 75.2 °F 70.0 °F 84% 29.87 in 10.0 mi South 17.3 mph 24.2 mph N/A   Light Drizzle
6:15 AM 75.4 °F 70.3 °F 84% 29.87 in 10.0 mi South 19.6 mph 29.9 mph N/A   Mostly Cloudy
6:35 AM 75.4 °F 71.1 °F 86% 29.86 in 10.0 mi South 23.0 mph 27.6 mph N/A   Mostly Cloudy
6:55 AM 75.4 °F 70.9 °F 86% 29.87 in 10.0 mi South 20.7 mph 29.9 mph N/A   Mostly Cloudy
7:15 AM 75.6 °F 70.7 °F 85% 29.87 in 10.0 mi South 23.0 mph 27.6 mph N/A   Overcast
7:35 AM 75.2 °F 70.9 °F 86% 29.87 in 7.0 mi SSW 23.0 mph 33.4 mph N/A   Drizzle
7:55 AM 74.5 °F 71.4 °F 90% 29.87 in 5.0 mi SSW 25.3 mph 31.1 mph 0.01 in Rain Light Rain
8:15 AM 73.6 °F 71.6 °F 93% 29.87 in 3.0 mi SSW 27.6 mph - 0.03 in Rain Light Rain
8:35 AM 72.1 °F 70.3 °F 94% 29.87 in 1.8 mi SSW 28.8 mph 47.2 mph 0.13 in Rain Rain
8:55 AM 72.5 °F 70.5 °F 93% 29.86 in 7.0 mi SSW 26.5 mph 32.2 mph 0.14 in Rain Rain
9:15 AM 73.4 °F 71.6 °F 94% 29.86 in 4.0 mi SSW 28.8 mph 34.5 mph 0.03 in Rain Light Rain
9:35 AM 73.0 °F 71.4 °F 95% 29.85 in 3.0 mi South 25.3 mph 33.4 mph 0.08 in Rain Light Rain
9:55 AM 73.0 °F 71.4 °F 95% 29.85 in 4.0 mi SSW 31.1 mph 39.1 mph 0.11 in Rain Rain
10:15 AM 72.7 °F 71.1 °F 95% 29.85 in 3.0 mi SSW 36.8 mph 43.7 mph 0.02 in Rain Light Rain
10:35 AM 72.7 °F 71.2 °F 95% 29.86 in 5.0 mi SSW 34.5 mph 41.4 mph 0.07 in Rain Rain
10:55 AM 73.8 °F 70.9 °F 91% 29.85 in 10.0 mi SSW 32.2 mph 35.7 mph 0.07 in   Mostly Cloudy
11:15 AM 74.7 °F 71.4 °F 90% 29.85 in 7.0 mi SSW 26.5 mph 34.5 mph N/A   Overcast
11:35 AM 74.8 °F 70.7 °F 87% 29.86 in 10.0 mi SSW 28.8 mph 36.8 mph N/A   Overcast
11:55 AM 75.9 °F 69.3 °F 80% 29.85 in 10.0 mi SSW 33.4 mph 40.3 mph N/A   Mostly Cloudy
12:15 PM 75.4 °F 69.4 °F 82% 29.85 in 10.0 mi SSW 27.6 mph 39.1 mph N/A   Mostly Cloudy
12:35 PM 75.6 °F 69.8 °F 82% 29.86 in 10.0 mi SW 26.5 mph 34.5 mph N/A   Mostly Cloudy
12:55 PM 75.6 °F 69.4 °F 81% 29.86 in 10.0 mi SW 23.0 mph 29.9 mph N/A   Overcast
1:15 PM 74.3 °F 69.8 °F 86% 29.86 in 10.0 mi SSW 27.6 mph 31.1 mph N/A   Overcast
1:35 PM 71.6 °F 69.4 °F 93% 29.85 in 5.0 mi SSW 21.9 mph 32.2 mph 0.02 in Rain Rain
1:55 PM 70.7 °F 69.6 °F 96% 29.84 in 2.5 mi SSW 15.0 mph - 0.12 in Rain Rain
2:15 PM 73.4 °F 71.2 °F 93% 29.82 in 5.0 mi SSW 32.2 mph 38.0 mph N/A Rain Light Rain
2:35 PM 70.0 °F 68.4 °F 95% - 1.2 mi NW 13.8 mph 25.3 mph 0.24 in Rain Heavy Rain
2:55 PM 68.0 °F 67.1 °F 97% 29.84 in 3.0 mi NW 9.2 mph 18.4 mph 0.33 in Rain Light Rain
3:15 PM 68.4 °F 67.3 °F 96% 29.85 in 7.0 mi NNW 4.6 mph - N/A Rain Rain
3:35 PM 68.7 °F 67.1 °F 95% 29.85 in 10.0 mi NW 6.9 mph - N/A   Overcast
3:55 PM 69.4 °F 67.3 °F 93% 29.85 in 10.0 mi NW 4.6 mph - N/A   Overcast
4:15 PM 70.0 °F 67.5 °F 92% 29.85 in 10.0 mi NW 5.8 mph - N/A   Overcast
4:35 PM 70.5 °F 66.7 °F 88% 29.85 in 10.0 mi NW 5.8 mph - N/A   Overcast
4:55 PM 67.5 °F 64.6 °F 90% 29.86 in 10.0 mi NE 9.2 mph - N/A   Overcast
5:15 PM 64.9 °F 63.5 °F 95% 29.87 in 10.0 mi NE 10.4 mph - N/A   Overcast
5:35 PM 64.9 °F 62.8 °F 93% 29.87 in 10.0 mi NE 12.7 mph - N/A   Mostly Cloudy
5:55 PM 65.3 °F 62.4 °F 90% 29.87 in 10.0 mi NE 11.5 mph - N/A   Scattered Clouds
6:15 PM 64.4 °F 61.9 °F 92% 29.87 in 10.0 mi NE 8.1 mph - N/A   Mostly Cloudy
6:35 PM 64.2 °F 61.9 °F 92% 29.88 in 10.0 mi ENE 8.1 mph - N/A   Overcast
6:55 PM 63.1 °F 60.8 °F 92% 29.88 in 10.0 mi ENE 8.1 mph - N/A   Overcast
7:15 PM 63.5 °F 61.5 °F 93% 29.89 in 10.0 mi ENE 9.2 mph - N/A   Overcast
7:35 PM 62.2 °F 60.8 °F 95% 29.89 in 10.0 mi ENE 8.1 mph - N/A   Overcast
7:55 PM 62.2 °F 60.8 °F 95% 29.90 in 10.0 mi ENE 5.8 mph - N/A   Overcast
8:15 PM 61.9 °F 60.6 °F 96% 29.91 in 10.0 mi ENE 5.8 mph - N/A   Scattered Clouds
8:35 PM 61.9 °F 60.3 °F 94% 29.91 in 10.0 mi ENE 5.8 mph - N/A   Clear
8:55 PM 61.5 °F 60.1 °F 95% 29.92 in 10.0 mi ENE 4.6 mph - N/A   Clear
9:15 PM 61.5 °F 60.1 °F 95% 29.93 in 10.0 mi Calm Calm - N/A   Mostly Cloudy
9:35 PM 61.7 °F 60.4 °F 96% 29.94 in 10.0 mi Calm Calm - N/A   Scattered Clouds
9:55 PM 61.2 °F 60.3 °F 97% 29.95 in 10.0 mi Calm Calm - N/A   Scattered Clouds
10:15 PM 60.8 °F 60.3 °F 98% 29.95 in 10.0 mi Calm Calm - N/A   Scattered Clouds
10:35 PM 60.3 °F 59.7 °F 98% 29.96 in 7.0 mi Calm Calm - N/A   Scattered Clouds
10:55 PM 61.7 °F 61.3 °F 99% 29.96 in 10.0 mi Calm Calm - N/A   Mostly Cloudy
11:15 PM 63.9 °F 63.5 °F 99% 29.96 in 5.0 mi WNW 3.5 mph - N/A   Overcast
11:35 PM 63.5 °F 63.1 °F 99% 29.97 in 5.0 mi WNW 4.6 mph - N/A   Overcast
11:55 PM 63.5 °F 63.0 °F 98% 29.98 in 10.0 mi WNW 4.6 mph - N/A   Mostly Cloudy